El Paso, TX

4:01 PM MST on February 22, 2017 (GMT -0700)
El Paso International

Weather History for KELP - April, 2013

Change the Weather History Date:

Tuesday, April 23, 2013

  Actual Average Record
Temperature  
Mean Temperature 71 °F 67 °F  
Max Temperature 88 °F 81 °F 93 °F (1965)
Min Temperature 54 °F 53 °F 37 °F (1907)
Degree Days  
Heating Degree Days 0 2  
Month to date heating degree days 54 82  
Since 1 July heating degree days 2192 2455  
Cooling Degree Days 6 4  
Month to date cooling degree days 89 50  
Year to date cooling degree days 122 60  
Growing Degree Days 23 (Base 50)    
Moisture  
Dew Point 11 °F    
Average Humidity 16    
Maximum Humidity 28    
Minimum Humidity 4    
Precipitation  
Precipitation 0.00 in 0.00 in 0.63 in (1994)
Month to date precipitation T 0.17  
Year to date precipitation 0.71 1.29  
Snow  
Snow 0.00 in - - ()
Month to date snowfall 0.0  
Since 1 July snowfall 3.1  
Snow Depth 0.00 in    
Sea Level Pressure  
Sea Level Pressure 29.70 in    
Wind  
Wind Speed 13 mph (SW)    
Max Wind Speed 32 mph    
Max Gust Speed 40 mph    
Visibility 9 miles    
Events      
T = Trace of Precipitation, MM = Missing Value Source: NWS Daily Summary

Daily Weather History Graph

Daily Weather History Graph

Search for Another Location

Airport or City:

Trip Planner

Search our weather history database for the weather conditions in past years. The results will help you decide how hot, cold, wet, or windy it might be!

Date:

Astronomy

Apr. 23, 2013 Rise Set
Actual Time 6:27 AM MDT 7:40 PM MDT
Civil Twilight 6:02 AM MDT 8:05 PM MDT
Nautical Twilight 5:31 AM MDT 8:36 PM MDT
Astronomical Twilight 5:00 AM MDT 9:07 PM MDT
Moon 5:44 PM MDT (4/23) 4:49 AM MDT (4/23)
Length of Visible Light 14h 03m
Length of Day
13h 12m
Waxing Gibbous, 94% of the Moon is Illuminated
Apr 23
Waxing Gibbous
Apr 25
Full
May 2
Last Quarter
May 9
New
May 17
First Quarter

Hourly Weather History & Observations

Time (MDT) Temp. Dew Point Humidity Pressure Visibility Wind Dir Wind Speed Gust Speed Precip Events Conditions
12:51 AM 72.0 °F 7.0 °F 8% 29.66 in 10.0 mi Variable 4.6 mph - N/A   Mostly Cloudy
1:51 AM 73.0 °F 9.0 °F 8% 29.64 in 10.0 mi SW 4.6 mph - N/A   Mostly Cloudy
2:51 AM 66.9 °F 10.0 °F 11% 29.65 in 10.0 mi SSE 9.2 mph - N/A   Scattered Clouds
3:51 AM 66.0 °F 9.0 °F 11% 29.66 in 10.0 mi South 4.6 mph - N/A   Partly Cloudy
4:51 AM 64.9 °F 10.0 °F 12% 29.66 in 10.0 mi SSW 6.9 mph - N/A   Partly Cloudy
5:51 AM 68.0 °F 8.1 °F 10% 29.67 in 10.0 mi NW 6.9 mph - N/A   Partly Cloudy
6:51 AM 63.0 °F 7.0 °F 11% 29.71 in 10.0 mi SSW 8.1 mph - N/A   Partly Cloudy
7:51 AM 68.0 °F 9.0 °F 10% 29.73 in 10.0 mi West 8.1 mph - N/A   Partly Cloudy
8:51 AM 73.0 °F 9.0 °F 8% 29.73 in 10.0 mi SW 11.5 mph - N/A   Partly Cloudy
9:51 AM 75.0 °F 9.0 °F 8% 29.73 in 10.0 mi WSW 13.8 mph - N/A   Clear
10:51 AM 77.0 °F 10.0 °F 8% 29.73 in 10.0 mi West 13.8 mph 20.7 mph N/A   Clear
11:51 AM 81.0 °F 10.9 °F 7% 29.72 in 10.0 mi SW 13.8 mph 23.0 mph N/A   Clear
12:51 PM 81.0 °F 10.0 °F 7% 29.69 in 10.0 mi WSW 13.8 mph 19.6 mph N/A   Clear
1:51 PM 82.0 °F 9.0 °F 6% 29.65 in 10.0 mi SSW 8.1 mph 17.3 mph N/A   Clear
2:51 PM 84.9 °F 8.1 °F 5% 29.63 in 10.0 mi WSW 18.4 mph 29.9 mph N/A   Clear
3:51 PM 87.1 °F 5.0 °F 4% 29.60 in 10.0 mi WSW 26.5 mph 32.2 mph N/A   Scattered Clouds
4:51 PM 86.0 °F 5.0 °F 5% 29.59 in 10.0 mi WSW 12.7 mph 33.4 mph N/A   Scattered Clouds
5:51 PM 84.9 °F 3.9 °F 5% 29.60 in 10.0 mi West 21.9 mph 32.2 mph N/A   Mostly Cloudy
6:51 PM 82.9 °F 6.1 °F 5% 29.62 in 10.0 mi West 21.9 mph 32.2 mph N/A   Mostly Cloudy
7:51 PM 81.0 °F 9.0 °F 6% 29.64 in 10.0 mi WNW 13.8 mph - N/A   Scattered Clouds
8:51 PM 79.0 °F 9.0 °F 7% 29.68 in 10.0 mi NW 13.8 mph - N/A   Scattered Clouds
9:31 PM 71.6 °F 15.8 °F 12% 29.92 in 7.0 mi East 16.1 mph 28.8 mph N/A   Partly Cloudy
9:40 PM 64.4 °F 23.0 °F 21% 29.93 in 1.5 mi East 29.9 mph 38.0 mph N/A   Widespread Dust
9:51 PM 64.0 °F 24.1 °F 22% 29.77 in 3.0 mi East 19.6 mph 27.6 mph N/A   Widespread Dust
10:51 PM 59.0 °F 25.0 °F 27% 29.87 in 4.0 mi NE 13.8 mph - N/A   Widespread Dust
11:51 PM 57.9 °F 25.0 °F 28% 29.89 in 7.0 mi ENE 9.2 mph - N/A   Clear